Time,TemperatureF,DewpointF,PressureIn,WindDirection,WindDirectionDegrees,WindSpeedMPH,WindSpeedGustMPH,Humidity,HourlyPrecipIn,Conditions,Clouds,dailyrainin,SoftwareType,DateUTC
2013-01-21 00:04:00,25.0,7.0,29.77,NNW,329,11.0,-999.0,45,-99.99,,,-99.99,,2013-01-21 05:04:00,
2013-01-21 00:12:00,25.0,7.0,29.77,NNW,329,11.0,-999.0,45,-99.99,,,-99.99,,2013-01-21 05:12:00,
2013-01-21 00:22:00,25.0,6.0,29.78,NW,306,13.0,-999.0,43,-99.99,,,-99.99,,2013-01-21 05:22:00,
2013-01-21 00:34:00,24.0,5.0,29.79,NW,318,13.0,-999.0,44,-99.99,,,-99.99,,2013-01-21 05:34:00,
2013-01-21 00:42:00,24.0,5.0,29.79,NW,318,13.0,-999.0,44,-99.99,,,-99.99,,2013-01-21 05:42:00,
2013-01-21 00:53:00,24.0,6.0,29.78,NNW,330,10.0,-999.0,46,-99.99,,,-99.99,,2013-01-21 05:53:00,
2013-01-21 01:03:00,23.0,6.0,29.79,NNW,342,10.0,-999.0,47,-99.99,,,-99.99,,2013-01-21 06:03:00,
2013-01-21 01:13:00,23.0,6.0,29.79,NNW,342,10.0,-999.0,47,-99.99,,,-99.99,,2013-01-21 06:13:00,
2013-01-21 01:23:00,22.0,4.0,29.80,NW,316,13.0,-999.0,45,-99.99,,,-99.99,,2013-01-21 06:23:00,
2013-01-21 01:33:00,22.0,4.0,29.80,WNW,285,13.0,-999.0,45,-99.99,,,-99.99,,2013-01-21 06:33:00,
2013-01-21 01:43:00,22.0,4.0,29.80,WNW,285,13.0,-999.0,45,-99.99,,,-99.99,,2013-01-21 06:43:00,
2013-01-21 01:53:00,21.0,4.0,29.81,NW,305,13.0,-999.0,46,-99.99,,,-99.99,,2013-01-21 06:53:00,
2013-01-21 02:03:00,21.0,4.0,29.81,NNW,342,12.0,-999.0,46,-99.99,,,-99.99,,2013-01-21 07:03:00,
2013-01-21 02:13:00,21.0,4.0,29.81,NNW,342,12.0,-999.0,46,-99.99,,,-99.99,,2013-01-21 07:13:00,
2013-01-21 02:23:00,20.0,3.0,29.83,NNW,329,11.0,-999.0,46,-99.99,,,-99.99,,2013-01-21 07:23:00,
2013-01-21 02:33:00,20.0,2.0,29.84,NW,320,13.0,-999.0,45,-99.99,,,-99.99,,2013-01-21 07:33:00,
2013-01-21 02:42:00,20.0,2.0,29.84,NW,320,13.0,-999.0,45,-99.99,,,-99.99,,2013-01-21 07:42:00,
2013-01-21 02:53:00,20.0,1.0,29.85,WNW,296,14.0,-999.0,43,-99.99,,,-99.99,,2013-01-21 07:53:00,
2013-01-21 03:03:00,20.0,2.0,29.85,NW,315,13.0,-999.0,44,-99.99,,,-99.99,,2013-01-21 08:03:00,
2013-01-21 03:14:00,20.0,2.0,29.85,NW,315,13.0,-999.0,44,-99.99,,,-99.99,,2013-01-21 08:14:00,
2013-01-21 03:23:00,20.0,2.0,29.85,NW,315,13.0,-999.0,44,-99.99,,,-99.99,,2013-01-21 08:23:00,
2013-01-21 03:33:00,20.0,2.0,29.85,NW,315,13.0,-999.0,44,-99.99,,,-99.99,,2013-01-21 08:33:00,
2013-01-21 06:23:00,15.0,-2.0,29.93,NNW,337,10.0,-999.0,47,-99.99,,,-99.99,,2013-01-21 11:23:00,
2013-01-21 06:33:00,15.0,-2.0,29.93,NNW,337,10.0,-999.0,47,-99.99,,,-99.99,,2013-01-21 11:33:00,
2013-01-21 06:43:00,15.0,-2.0,29.93,NNW,337,10.0,-999.0,47,-99.99,,,-99.99,,2013-01-21 11:43:00,
2013-01-21 06:53:00,15.0,-2.0,29.93,NNW,337,10.0,-999.0,47,-99.99,,,-99.99,,2013-01-21 11:53:00,
2013-01-21 07:02:00,15.0,-2.0,29.93,NNW,337,10.0,-999.0,47,-99.99,,,-99.99,,2013-01-21 12:02:00,
2013-01-21 08:03:00,14.0,-1.0,29.96,WNW,299,10.0,-999.0,51,-99.99,,,-99.99,,2013-01-21 13:03:00,
2013-01-21 08:13:00,14.0,-1.0,29.96,WNW,299,10.0,-999.0,51,-99.99,,,-99.99,,2013-01-21 13:13:00,
2013-01-21 08:23:00,14.0,0.0,29.98,North,350,6.0,-999.0,52,-99.99,,,-99.99,,2013-01-21 13:23:00,
2013-01-21 08:33:00,15.0,0.0,29.99,West,272,8.0,-999.0,50,-99.99,,,-99.99,,2013-01-21 13:33:00,
2013-01-21 08:43:00,15.0,0.0,29.99,West,272,8.0,-999.0,50,-99.99,,,-99.99,,2013-01-21 13:43:00,
2013-01-21 08:54:00,15.0,0.0,29.99,NNW,337,7.0,-999.0,51,-99.99,,,-99.99,,2013-01-21 13:54:00,
2013-01-21 09:03:00,15.0,0.0,29.99,NNW,337,7.0,-999.0,51,-99.99,,,-99.99,,2013-01-21 14:03:00,
2013-01-21 09:12:00,15.0,0.0,29.99,NNW,337,7.0,-999.0,51,-99.99,,,-99.99,,2013-01-21 14:12:00,
2013-01-21 10:23:00,18.0,-1.0,30.02,NW,318,6.0,-999.0,42,-99.99,,,-99.99,,2013-01-21 15:23:00,
2013-01-21 10:33:00,18.0,-1.0,30.02,North,360,7.0,-999.0,42,-99.99,,,-99.99,,2013-01-21 15:33:00,
2013-01-21 10:43:00,18.0,-1.0,30.02,North,360,7.0,-999.0,42,-99.99,,,-99.99,,2013-01-21 15:43:00,
2013-01-21 10:53:00,18.0,-1.0,30.02,North,360,7.0,-999.0,42,-99.99,,,-99.99,,2013-01-21 15:53:00,
2013-01-21 11:03:00,20.0,0.0,30.02,NW,304,5.0,-999.0,41,-99.99,,,-99.99,,2013-01-21 16:03:00,
2013-01-21 11:13:00,20.0,0.0,30.02,NW,304,5.0,-999.0,41,-99.99,,,-99.99,,2013-01-21 16:13:00,
2013-01-21 11:23:00,20.0,-1.0,30.01,WNW,302,5.0,-999.0,38,-99.99,,,-99.99,,2013-01-21 16:23:00,
2013-01-21 11:33:00,20.0,-1.0,30.00,NW,325,6.0,-999.0,39,-99.99,,,-99.99,,2013-01-21 16:33:00,
2013-01-21 11:43:00,20.0,-1.0,30.00,NW,325,6.0,-999.0,39,-99.99,,,-99.99,,2013-01-21 16:43:00,
2013-01-21 11:53:00,20.0,-3.0,29.99,North,359,7.0,-999.0,36,-99.99,,,-99.99,,2013-01-21 16:53:00,
2013-01-21 12:03:00,21.0,-2.0,29.98,WNW,289,5.0,-999.0,36,-99.99,,,-99.99,,2013-01-21 17:03:00,
2013-01-21 12:12:00,21.0,-2.0,29.98,WNW,289,5.0,-999.0,36,-99.99,,,-99.99,,2013-01-21 17:12:00,
2013-01-21 12:23:00,21.0,-4.0,29.96,NW,313,8.0,-999.0,33,-99.99,,,-99.99,,2013-01-21 17:23:00,
2013-01-21 12:33:00,21.0,-2.0,29.98,West,263,8.0,-999.0,35,-99.99,,,-99.99,,2013-01-21 17:33:00,
2013-01-21 12:43:00,21.0,-2.0,29.98,West,263,8.0,-999.0,35,-99.99,,,-99.99,,2013-01-21 17:43:00,
2013-01-21 12:53:00,21.0,-4.0,29.99,NW,325,8.0,-999.0,33,-99.99,,,-99.99,,2013-01-21 17:53:00,
2013-01-21 13:03:00,22.0,-3.0,29.99,WNW,284,4.0,-999.0,33,-99.99,,,-99.99,,2013-01-21 18:03:00,
2013-01-21 13:12:00,22.0,-3.0,29.99,WNW,284,4.0,-999.0,33,-99.99,,,-99.99,,2013-01-21 18:12:00,
2013-01-21 13:23:00,22.0,-5.0,29.98,NW,319,4.0,-999.0,30,-99.99,,,-99.99,,2013-01-21 18:23:00,
2013-01-21 13:33:00,22.0,-3.0,29.97,NW,316,2.0,-999.0,32,-99.99,,,-99.99,,2013-01-21 18:33:00,
2013-01-21 13:43:00,22.0,-3.0,29.97,NW,316,2.0,-999.0,32,-99.99,,,-99.99,,2013-01-21 18:43:00,
2013-01-21 13:53:00,23.0,-3.0,29.96,NW,304,6.0,-999.0,31,-99.99,,,-99.99,,2013-01-21 18:53:00,
2013-01-21 14:03:00,23.0,-4.0,29.96,WNW,284,2.0,-999.0,29,-99.99,,,-99.99,,2013-01-21 19:03:00,
2013-01-21 14:12:00,23.0,-4.0,29.96,WNW,284,2.0,-999.0,29,-99.99,,,-99.99,,2013-01-21 19:12:00,
2013-01-21 14:22:00,23.0,-4.0,29.97,West,277,2.0,-999.0,30,-99.99,,,-99.99,,2013-01-21 19:22:00,
2013-01-21 14:33:00,23.0,-3.0,29.97,NNW,333,2.0,-999.0,31,-99.99,,,-99.99,,2013-01-21 19:33:00,
2013-01-21 14:43:00,23.0,-3.0,29.97,NNW,333,2.0,-999.0,31,-99.99,,,-99.99,,2013-01-21 19:43:00,
2013-01-21 14:53:00,24.0,-3.0,29.97,West,278,2.0,-999.0,30,-99.99,,,-99.99,,2013-01-21 19:53:00,
2013-01-21 15:03:00,23.0,-3.0,29.97,WSW,239,0.0,-999.0,31,-99.99,,,-99.99,,2013-01-21 20:03:00,
2013-01-21 15:12:00,23.0,-3.0,29.97,WSW,239,0.0,-999.0,31,-99.99,,,-99.99,,2013-01-21 20:12:00,
2013-01-21 15:23:00,23.0,-2.0,29.97,WNW,295,0.0,-999.0,32,-99.99,,,-99.99,,2013-01-21 20:23:00,
2013-01-21 15:33:00,21.0,-2.0,29.98,WNW,282,0.0,-999.0,35,-99.99,,,-99.99,,2013-01-21 20:33:00,
2013-01-21 15:43:00,21.0,-2.0,29.98,WNW,282,0.0,-999.0,35,-99.99,,,-99.99,,2013-01-21 20:43:00,
2013-01-21 15:53:00,21.0,-2.0,29.97,WNW,298,0.0,-999.0,36,-99.99,,,-99.99,,2013-01-21 20:53:00,
2013-01-21 16:04:00,21.0,-2.0,29.97,WNW,302,0.0,-999.0,35,-99.99,,,-99.99,,2013-01-21 21:04:00,
2013-01-21 16:12:00,21.0,-2.0,29.97,WNW,302,0.0,-999.0,35,-99.99,,,-99.99,,2013-01-21 21:12:00,
2013-01-21 16:23:00,21.0,1.0,29.97,NW,312,0.0,-999.0,40,-99.99,,,-99.99,,2013-01-21 21:23:00,
2013-01-21 16:33:00,20.0,-1.0,29.97,NW,312,0.0,-999.0,39,-99.99,,,-99.99,,2013-01-21 21:33:00,
2013-01-21 16:43:00,20.0,-1.0,29.97,NW,312,0.0,-999.0,39,-99.99,,,-99.99,,2013-01-21 21:43:00,
2013-01-21 16:54:00,20.0,0.0,29.97,NW,312,0.0,-999.0,40,-99.99,,,-99.99,,2013-01-21 21:54:00,
2013-01-21 17:03:00,20.0,0.0,29.97,NW,312,0.0,-999.0,40,-99.99,,,-99.99,,2013-01-21 22:03:00,
2013-01-21 17:13:00,20.0,0.0,29.97,NW,312,0.0,-999.0,40,-99.99,,,-99.99,,2013-01-21 22:13:00,
2013-01-21 17:23:00,19.0,1.0,29.97,NW,312,0.0,-999.0,45,-99.99,,,-99.99,,2013-01-21 22:23:00,
2013-01-21 17:33:00,19.0,2.0,29.97,NW,312,0.0,-999.0,46,-99.99,,,-99.99,,2013-01-21 22:33:00,
2013-01-21 17:43:00,19.0,2.0,29.97,NW,312,0.0,-999.0,46,-99.99,,,-99.99,,2013-01-21 22:43:00,
2013-01-21 17:53:00,19.0,2.0,29.97,NW,312,0.0,-999.0,47,-99.99,,,-99.99,,2013-01-21 22:53:00,
2013-01-21 18:03:00,19.0,2.0,29.96,NW,312,0.0,-999.0,47,-99.99,,,-99.99,,2013-01-21 23:03:00,
2013-01-21 18:13:00,19.0,2.0,29.96,NW,312,0.0,-999.0,47,-99.99,,,-99.99,,2013-01-21 23:13:00,
2013-01-21 18:23:00,19.0,2.0,29.96,NW,312,0.0,-999.0,47,-99.99,,,-99.99,,2013-01-21 23:23:00,
2013-01-21 18:33:00,19.0,2.0,29.96,NW,312,0.0,-999.0,47,-99.99,,,-99.99,,2013-01-21 23:33:00,
2013-01-21 18:42:00,19.0,2.0,29.96,NW,312,0.0,-999.0,47,-99.99,,,-99.99,,2013-01-21 23:42:00,
2013-01-21 18:53:00,19.0,4.0,29.95,NW,312,0.0,-999.0,52,-99.99,,,-99.99,,2013-01-21 23:53:00,
2013-01-21 19:03:00,20.0,6.0,29.95,NW,312,0.0,-999.0,55,-99.99,,,-99.99,,2013-01-22 00:03:00,
2013-01-21 19:12:00,20.0,6.0,29.95,NW,312,0.0,-999.0,55,-99.99,,,-99.99,,2013-01-22 00:12:00,
2013-01-21 19:23:00,20.0,5.0,29.95,NW,312,0.0,-999.0,52,-99.99,,,-99.99,,2013-01-22 00:23:00,
2013-01-21 19:33:00,20.0,6.0,29.95,NW,312,0.0,-999.0,55,-99.99,,,-99.99,,2013-01-22 00:33:00,
2013-01-21 19:43:00,20.0,6.0,29.95,NW,312,0.0,-999.0,55,-99.99,,,-99.99,,2013-01-22 00:43:00,
2013-01-21 19:53:00,20.0,6.0,29.95,NW,312,0.0,-999.0,55,-99.99,,,-99.99,,2013-01-22 00:53:00,
2013-01-21 20:02:00,20.0,7.0,29.96,NW,312,0.0,-999.0,56,-99.99,,,-99.99,,2013-01-22 01:02:00,
2013-01-21 20:12:00,20.0,7.0,29.96,NW,312,0.0,-999.0,56,-99.99,,,-99.99,,2013-01-22 01:12:00,
2013-01-21 20:23:00,21.0,7.0,29.96,NW,320,0.0,-999.0,53,-99.99,,,-99.99,,2013-01-22 01:23:00,
2013-01-21 20:33:00,21.0,6.0,29.96,NNW,328,0.0,-999.0,51,-99.99,,,-99.99,,2013-01-22 01:33:00,
2013-01-21 20:43:00,21.0,6.0,29.96,NNW,328,0.0,-999.0,51,-99.99,,,-99.99,,2013-01-22 01:43:00,
2013-01-21 20:53:00,21.0,6.0,29.96,NNW,328,0.0,-999.0,52,-99.99,,,-99.99,,2013-01-22 01:53:00,
2013-01-21 21:02:00,21.0,7.0,29.96,NNW,328,0.0,-999.0,55,-99.99,,,-99.99,,2013-01-22 02:02:00,
2013-01-21 21:12:00,21.0,7.0,29.96,NNW,328,0.0,-999.0,55,-99.99,,,-99.99,,2013-01-22 02:12:00,
2013-01-21 21:22:00,21.0,8.0,29.95,NNW,342,0.0,-999.0,57,-99.99,,,-99.99,,2013-01-22 02:22:00,
2013-01-21 21:32:00,21.0,9.0,29.95,North,352,0.0,-999.0,60,-99.99,,,-99.99,,2013-01-22 02:32:00,
2013-01-21 21:43:00,21.0,9.0,29.95,North,352,0.0,-999.0,60,-99.99,,,-99.99,,2013-01-22 02:43:00,
2013-01-21 21:53:00,21.0,10.0,29.95,NNW,344,0.0,-999.0,61,-99.99,,,-99.99,,2013-01-22 02:53:00,
2013-01-21 22:03:00,21.0,10.0,29.96,North,349,0.0,-999.0,63,-99.99,,,-99.99,,2013-01-22 03:03:00,
2013-01-21 22:12:00,21.0,10.0,29.96,North,349,0.0,-999.0,63,-99.99,,,-99.99,,2013-01-22 03:12:00,
2013-01-21 22:22:00,21.0,11.0,29.96,NNW,340,0.0,-999.0,66,-99.99,,,-99.99,,2013-01-22 03:22:00,
2013-01-21 22:32:00,20.0,12.0,29.95,NNE,20,0.0,-999.0,72,-99.99,,,-99.99,,2013-01-22 03:32:00,
2013-01-21 22:42:00,20.0,12.0,29.95,NNE,20,0.0,-999.0,72,-99.99,,,-99.99,,2013-01-22 03:42:00,
2013-01-21 22:52:00,20.0,13.0,29.96,NE,35,0.0,-999.0,75,-99.99,,,-99.99,,2013-01-22 03:52:00,
2013-01-21 23:03:00,19.0,13.0,29.95,NNE,24,0.0,-999.0,77,-99.99,,,-99.99,,2013-01-22 04:03:00,
2013-01-21 23:12:00,19.0,13.0,29.95,NNE,24,0.0,-999.0,77,-99.99,,,-99.99,,2013-01-22 04:12:00,
2013-01-21 23:22:00,19.0,13.0,29.95,NNE,24,0.0,-999.0,77,-99.99,,,-99.99,,2013-01-22 04:22:00,
2013-01-21 23:33:00,19.0,13.0,29.95,NNE,24,0.0,-999.0,77,-99.99,,,-99.99,,2013-01-22 04:33:00,
2013-01-21 23:42:00,19.0,13.0,29.95,NNE,24,0.0,-999.0,77,-99.99,,,-99.99,,2013-01-22 04:42:00,
2013-01-21 23:53:00,19.0,14.0,29.90,NNE,30,0.0,-999.0,81,-99.99,,,-99.99,,2013-01-22 04:53:00,